www.pogodaiklimat.ru

Погода и климат >> Архив погоды >> Канада >> Rankin Inlet


ПОГОДА в Rankin Inlet

  • Прогноз погоды в Rankin Inlet
  • Монитор погоды в Rankin Inlet
  • Климат города

АРХИВ ПОГОДЫ в Rankin Inlet

Время (UTC), дата Ветер
(напр.,м/с)
 
Видим.   Явления Облачность Т
(С)
Тd
(С)
f
(%)
Тe
(С)
Тes
(С)
Комфортность P
(гПа)
Po
(гПа)
Тmin
(С)
Tmax
(С)
R
(мм)
R24
(мм)
S
(см)
09 14.10 С 15 8000 м 8/8 300 м
[]
-8.9 -10.6 87 -21 -21 1001.8 997.6
12 14.10 С 15 8000 м слабый снег 6/3 300 м
[Sc Ac As]
-9.3 -11.2 86 -22 -22 1002.6 998.4 -9.4 -2.5 0.2 9
15 14.10 С 17 6000 м 9/9 300 м
[]
-9.7 -11.9 84 -23 -23 1003.9 999.7
18 14.10 С 15 9000 м слабый снег 9/6 300 м
[Sc Ac trans]
-9.5 -11.8 83 -22 -22 1004.8 1000.6 -10.1 -8.8 0.0 9
21 14.10 СЗ 14 9000 м 9/9 300 м
[]
-9.9 -11.7 87 -22 -22 1006.0 1001.8
00 15.10 СЗ 12 16 км позёмок {снег} 9/4 300 м
[Sc Ci fib]
-10.5 -12.5 85 -22 -22 1007.6 1003.4 -10.5 -9.3 0.0 9
03 15.10 СЗ 12 24 км 4/0
[]
-11.4 -13.9 82 -23 -23 1008.3 1004.0
06 15.10 СЗ 11 24 км позёмок 3/0
[Ci fib]
-12.4 -14.8 82 -24 -24 1009.0 1004.7 -12.5 -8.8 143
09 15.10 СЗ 8 24 км 5/5 300 м
[]
-12.9 -15.0 84 -23 -23 1009.6 1005.3
12 15.10 СЗ 8 24 км слабый снег 8/4 300 м
[Sc Ci fib]
-12.0 -14.2 84 -22 -22 1009.4 1005.1 -13.0 -8.8 0.0 9
15 15.10 СЗ 8 24 км 9/9 300 м
[]
-11.7 -14.1 82 -22 -22 1009.5 1005.2
18 15.10 СЗ 7 24 км {снег} 9/1 300 м
[Sc Ci fib]
-11.2 -13.5 83 -20 -20 1009.3 1005.0 -13.0 -11.2 0.0 9
21 15.10 СЗ 4 24 км 9/0 2000 м
[]
-11.2 -13.3 84 -18 -18 1009.0 1004.7
00 16.10 В 2 24 км 9/9 600 м
[Sc]
-8.8 -11.1 83 -13 -13 1008.2 1003.9 -13.0 -8.8
03 16.10 ЮВ 4 24 км 10/10 600 м
[]
-6.0 -10.3 72 -12 -12 1006.5 1002.3
06 16.10 ЮВ 10 4800 м слабый снег 10/10 300 м
[Sc]
-4.3 -5.8 89 -14 -14 1003.9 999.7 -13.0 -4.3 0.4 71
09 16.10 В 9 800 м н/о -5.9 -6.9 93 -15 -15 1002.9 998.7
12 16.10 СВ 11 3200 м слабый снег 4/4 600 м
[Sc]
-7.0 -8.5 89 -17 -17 1003.2 999.0 -9.8 -4.3 3 12
15 16.10 СВ 10 24 км 10/10 300 м
[]
-6.7 -9.6 80 -17 -17 1004.0 999.8
18 16.10 СВ 9 24 км позёмок {снег} 10/10 300 м
[Sc]
-6.4 -8.3 86 -16 -16 1004.3 1000.1 -11.4 -3.3 0.0 12
21 16.10 СВ 9 24 км 9/9 300 м
[]
-7.8 -9.6 87 -18 -18 1004.9 1000.7
00 17.10 СВ 6 24 км позёмок 8/6 300 м
[Sc Ci fib]
-7.1 -9.3 84 -15 -15 1006.4 1002.2 -8.5 -6.2
03 17.10 СВ 6 24 км 6/0 2000 м
[]
-8.3 -10.6 83 -17 -17 1007.4 1003.2
06 17.10 С 7 24 км 3/0 2000 м
[Ac As]
-13.8 -15.4 88 -24 -24 1008.0 1003.7 -13.8 -3.3 111
09 17.10 СЗ 5 24 км 1/1 600 м
[]
-14.7 -16.1 89 -23 -23 1009.3 1005.0
12 17.10 С 4 16 км 4/4 100 м
[Sc]
-15.3 -16.9 88 -23 -23 1010.1 1005.8 -15.3 -3.3 12
15 17.10 С 3 24 км 4/4 50 м
[]
-13.2 -14.8 88 -20 -19 1009.9 1005.6
18 17.10 С 4 16 км 8/5 100 м
[Sc Ac trans]
-11.1 -12.5 89 -18 -17 1010.5 1006.2 -15.3 -11.0 12
21 17.10 ЮВ 2 24 км 8/8 100 м
[]
-7.4 -8.8 90 -11 -11 1010.4 1006.1
00 18.10 ЮВ 1 24 км 9/9 300 м
[Sc]
-5.5 -6.9 90 -8 -8 1010.6 1006.3 -15.3 -5.5 12
03 18.10 ЮВ 5 24 км 6/6 300 м
[]
-4.7 -6.3 89 -12 -12 1009.6 1005.4
06 18.10 Ю 6 24 км 6/6 600 м
[Sc]
-3.0 -7.4 72 -10 -10 1009.8 1005.6 -15.3 -3.0 7
09 18.10 ЮВ 7 24 км 6/6 1000 м
[]
-2.6 -6.3 76 -10 -10 1008.8 1004.6
12 18.10 В 8 24 км слабый снег 8/8 600 м
[Sc]
-2.4 -6.1 76 -10 -10 1008.6 1004.4 -5.7 -3.0 0.0 12
15 18.10 В 6 24 км 8/8 600 м
[]
-4.2 -7.0 81 -12 -12 1008.3 1004.1
18 18.10 В 6 24 км {снег} 9/8 600 м
[Sc Ci fib]
-3.0 -6.4 77 -10 -10 1007.7 1003.5 -11.0 -2.4 0.0 12
21 18.10 В 7 24 км 10/10 600 м
[]
-3.6 -6.8 78 -11 -11 1007.8 1003.6
00 19.10 СВ 7 24 км 9/6 600 м
[Sc As op]
-4.9 -7.5 82 -13 -13 1009.1 1004.9 -4.9 -2.4 12
03 19.10 СВ 6 24 км 9/9 600 м
[]
-4.8 -7.6 81 -13 -13 1008.9 1004.7
06 19.10 СВ 8 24 км 5/3 600 м
[Sc Ac As]
-5.9 -8.3 83 -15 -15 1009.0 1004.8 -6.3 -2.4 231
09 19.10 СВ 8 24 км 8/8 600 м
[]
-6.9 -8.6 88 -16 -16 1010.6 1006.4
12 19.10 СВ 7 24 км 6/3 300 м
[Sc Ci fib]
-8.9 -10.5 88 -18 -18 1011.7 1007.5 -8.9 -2.4 12
15 19.10 С 6 24 км 1/1 100 м
[]
-11.4 -13.1 87 -20 -20 1012.9 1008.6
18 19.10 С 4 24 км 1/1 300 м
[Sc Ci fib]
-9.7 -12.2 82 -16 -15 1014.2 1009.9 -12.0 -5.8
21 19.10 С 3 24 км 3/3 300 м
[]
-9.2 -11.4 84 -15 -15 1014.8 1010.5
00 20.10 С 3 24 км 3/1 300 м
[Sc Ci fib]
-11.2 -12.7 89 -17 -17 1015.7 1011.4 -12.0 -8.5
03 20.10 С 2 24 км 4/4 300 м
[]
-11.5 -12.9 89 -16 -16 1016.1 1011.8
06 20.10 С 3 24 км 6/3 600 м
[Sc Ac As Ci fib]
-11.8 -13.4 88 -18 -18 1017.2 1012.9 -12.5 -5.8 91
09 20.10 СВ 2 24 км 6/6 600 м
[]
-9.2 -10.8 88 -14 -14 1017.5 1013.2
12 20.10 Ю 6 24 км 9/9 600 м
[Sc]
-2.5 -5.9 77 -9 -9 1017.8 1013.5 -12.5 -5.8 12
15 20.10 Ю 8 24 км 10/10 300 м
[]
-2.1 -5.0 80 -10 -10 1018.2 1013.9
18 20.10 Ю 9 24 км 10/10 300 м
[Sc]
-1.4 -4.7 78 -9 -9 1018.9 1014.6 -12.5 -1.2
21 20.10 Ю 9 24 км 10/10 300 м
[]
-0.8 -4.5 76 -9 -9 1018.4 1014.2
00 21.10 Ю 10 24 км 10/10 600 м
[Sc]
-0.5 -4.2 76 -9 -9 1018.5 1014.3 -11.9 -0.5
03 21.10 Ю 11 24 км 10/10 300 м
[]
-0.7 -3.6 81 -9 -9 1017.9 1013.7
06 21.10 Ю 12 24 км позёмок 10/10 300 м
[Sc]
-0.7 -3.1 84 -10 -10 1018.2 1014.0 -11.9 -0.4 62

 

Местоположение метеостанции Rankin Inlet (Канада): широта 62.82 долгота -92.11 высота над уровнем моря 31 м.

В архиве по умолчанию представлена погода в Rankin Inlet за последнюю неделю. Архивные данные за месяц целиком и за предыдущие месяцы, начиная с января 2011 года, Вы можете получить, выбрав интересующий диапазон дат из раскрывающегося списка и нажав кнопку "Ввод!".

Внимание! Время в таблицах - всемирное. Для получения местного времени необходимо прибавить поправку, которая в Rankin Inlet равна -6 ч.

Смотрите также архив погоды в соседних городах и на ближайших метеорологических станциях:

Погода в Arviat Climate (Канада) (217 км)
Погода в Arviat (Канада) (217 км)
Погода в Arviat Airport (Канада) (218 км)
Погода в Baker Lake Climate (Канада) (255 км)
Погода в Baker Lake Airport (Канада) (256 км)
Погода в Wager Bay (Канада) (364 км)
Погода в Back River MAPS (Канада) (419 км)
Погода в Coral Harbour Arpt (Канада) (460 км)
Погода в Churchill Climate (Канада) (468 км)
Погода в Dubawnt Lake (Канада) (486 км)

Пояснения к столбцам:

Ветер - указаны скорость ветра в м/с - средняя за 10 мин, порывы в срок и между сроками (в фигурных скобках) и направление, откуда дует ветер: С - северный, СВ - северо-восточный, В - восточный, ЮВ - юго-восточный, Ю - южный, ЮЗ - юго-западный, З - западный, СЗ - северо-западный.
Видимость - горизонтальная дальность видимости в метрах или километрах. При видимости от 1 до 10 км при отсутствии осадков обычно наблюдается дымка, при ухудшении видимости до 1 км и менее - туман. В сухую погоду видимость может ухудшаться дымом, пылью или мглою.
Явления - указаны атмосферные явления, наблюдавшиеся в срок или в последний час перед сроком; фигурными скобками обозначены явления, наблюдавшиеся между сроками (за 1-3 часа до срока); квадратными скобками обозначены град или гололедные отложения с указанием их диаметра в мм.
Облачность - указаны через наклонную черту общая и нижняя облачность в баллах и высота нижней границы облаков в метрах; квадратными скобками обозначены формы облаков: Ci - перистые, Cs - перисто-слоистые, Cc - перисто-кучевые, Ac - высококучевые, As - высокослоистые, Sc - слоисто-кучевые, Ns - слоисто-дождевые, Cu - кучевые, Cb - кучево-дождевые. Подробнее классификацию облаков см. в Атласе облаков (PDF).
T - Температура воздуха - температура, измеренная на высоте 2 м над землей.
Td - Температура точки росы - температура, при понижении до которой содержащийся в воздухе водяной пар достигнет насыщения.
f - Относительная влажность воздуха - влажноcть воздуха, измеренная на высоте 2 м над землей.
Te - Эффективная температура - температура, которую ощущает одетый по сезону человек в тени. Характеристика душности погоды. При расчете учитывается влияние влажности воздуха и скорости ветра на теплоощущения человека.
Tes - Эффективная температура на солнце - температура, которую ощущает человек, с поправкой на солнечный нагрев. Характеристика знойности погоды. Зависит от высоты солнца над горизонтом, облачности и скорости ветра. Ночью, в пасмурную погоду, а также при ветре 12 м/с и более поправка равна нулю.
P - Атмосферное давление - приведенное к уровню моря атмосферное давление.
Po - Атмосферное давление - измеренное на уровне метеостанции атмосферное давление.
Tmin - Минимальная температура - минимум температуры воздуха на высоте 2 м над землей.
Tmax - Максимальная температура - максимум температуры воздуха на высоте 2 м над землей.
R - Количество осадков - Количество выпавших осадков за период времени, мм. При наведении курсора мыши на число - период времени, за который выпало указанное количество осадков.
R24 - Количество осадков - Количество выпавших осадков за 24 часа, мм.
S - Снежный покров - Высота снежного покрова, см. При наведении курсора мыши на число - состояние снежного покрова и степень покрытия местности в баллах.